Biloxi, MS

5:37 PM CDT on April 23, 2017 (GMT -0500)
Keesler Air Force Base

Weather History for KBIX - April, 2015

Change the Weather History Date:

Wednesday, April 8, 2015

  Actual Average Record
Temperature  
Mean Temperature 75 °F -  
Max Temperature 81 °F 74 °F 83 °F (1967)
Min Temperature 70 °F 60 °F 38 °F (1971)
Cooling Degree Days 10    
Growing Degree Days 25 (Base 50)    
Moisture  
Dew Point 72 °F    
Average Humidity 90    
Maximum Humidity 100    
Minimum Humidity 72    
Precipitation  
Precipitation 0.00 in - - ()
Sea Level Pressure  
Sea Level Pressure 30.08 in    
Wind  
Wind Speed 6 mph (SSE)    
Max Wind Speed 10 mph    
Max Gust Speed -    
Visibility 10 miles    
Events      
Averages and records for this station are not official NWS values.
T = Trace of Precipitation, MM = Missing Value Source: NWS Daily Summary

Daily Weather History Graph

Daily Weather History Graph

Search for Another Location

Airport or City:

Trip Planner

Search our weather history database for the weather conditions in past years. The results will help you decide how hot, cold, wet, or windy it might be!

Date:

Astronomy

Apr. 08, 2015 Rise Set
Actual Time 6:36 AM CDT 7:18 PM CDT
Civil Twilight 6:12 AM CDT 7:43 PM CDT
Nautical Twilight 5:43 AM CDT 8:11 PM CDT
Astronomical Twilight 5:14 AM CDT 8:41 PM CDT
Moon 11:16 PM CDT (4/8) 9:22 AM CDT (4/8)
Length of Visible Light 13h 30m
Length of Day
12h 42m
Waning Gibbous, 84% of the Moon is Illuminated
Apr 8
Waning Gibbous
Apr 11
Last Quarter
Apr 18
New
Apr 25
First Quarter
May 3
Full

Hourly Weather History & Observations

Time (CDT) Temp. Heat Index Dew Point Humidity Pressure Visibility Wind Dir Wind Speed Gust Speed Precip Events Conditions
12:03 AM 73.4 °F - 73.4 °F 100% 30.09 in 10.0 mi South 8.1 mph - N/A   Mostly Cloudy
12:58 AM 73.2 °F - 72.9 °F 99% 30.11 in 10.0 mi South 4.6 mph - N/A   Overcast
1:13 AM 73.4 °F - 73.4 °F 100% 30.10 in 10.0 mi South 3.5 mph - N/A   Overcast
1:48 AM 73.4 °F - 71.6 °F 94% 30.11 in 10.0 mi East 2.3 mph - N/A   Overcast
1:53 AM 73.4 °F - 71.6 °F 94% 30.10 in 10.0 mi SSE 3.5 mph - N/A   Overcast
1:58 AM 73.0 °F - 71.6 °F 95% 30.11 in 10.0 mi SSE 3.5 mph - N/A   Mostly Cloudy
2:03 AM 73.4 °F - 71.6 °F 94% 30.10 in 10.0 mi SE 2.3 mph - N/A   Mostly Cloudy
2:38 AM 73.4 °F - 71.6 °F 94% 30.09 in 10.0 mi South 3.5 mph - N/A   Scattered Clouds
2:48 AM 73.4 °F - 71.6 °F 94% 30.09 in 10.0 mi SSE 2.3 mph - N/A   Mostly Cloudy
2:53 AM 73.4 °F - 71.6 °F 94% 30.09 in 10.0 mi SSE 2.3 mph - N/A   Scattered Clouds
2:58 AM 72.3 °F - 71.6 °F 98% 30.10 in 10.0 mi South 2.3 mph - N/A   Scattered Clouds
3:08 AM 71.6 °F - 71.6 °F 100% 30.09 in 10.0 mi South 2.3 mph - N/A   Mostly Cloudy
3:13 AM 71.6 °F - 71.6 °F 100% 30.09 in 10.0 mi SSE 2.3 mph - N/A   Scattered Clouds
3:58 AM 70.3 °F - 70.3 °F 100% 30.09 in 10.0 mi South 3.5 mph - N/A   Partly Cloudy
4:58 AM 71.2 °F - 71.2 °F 100% 30.09 in 10.0 mi South 4.6 mph - N/A   Partly Cloudy
5:58 AM 71.8 °F - 71.8 °F 100% 30.10 in 10.0 mi South 3.5 mph - N/A   Clear
6:58 AM 72.0 °F - 71.8 °F 99% 30.11 in 10.0 mi South 3.5 mph - N/A   Clear
7:58 AM 73.9 °F - 73.2 °F 98% 30.14 in 10.0 mi South 5.8 mph - N/A   Clear
8:58 AM 76.3 °F - 70.9 °F 83% 30.14 in 10.0 mi South 5.8 mph - N/A   Clear
9:58 AM 78.3 °F - 70.7 °F 77% 30.15 in 10.0 mi South 8.1 mph - N/A   Clear
10:58 AM 78.6 °F - 69.8 °F 74% 30.16 in 10.0 mi South 6.9 mph - N/A   Clear
11:58 AM 79.9 °F - 70.3 °F 73% 30.15 in 10.0 mi South 6.9 mph - N/A   Partly Cloudy
12:58 PM 80.4 °F 84.1 °F 71.2 °F 73% 30.13 in 10.0 mi SSE 8.1 mph - N/A   Partly Cloudy
1:58 PM 79.9 °F - 70.3 °F 73% 30.11 in 10.0 mi SSE 8.1 mph - N/A   Clear
2:58 PM 80.4 °F 83.9 °F 70.7 °F 72% 30.09 in 10.0 mi South 10.4 mph - N/A   Partly Cloudy
3:58 PM 80.6 °F 84.2 °F 70.9 °F 72% 30.08 in 10.0 mi South 10.4 mph - N/A   Clear
4:58 PM 78.4 °F - 70.7 °F 77% 30.06 in 10.0 mi SSE 8.1 mph - N/A   Clear
5:58 PM 76.5 °F - 71.4 °F 84% 30.06 in 10.0 mi SSE 9.2 mph - N/A   Scattered Clouds
6:58 PM 75.0 °F - 71.6 °F 89% 30.06 in 10.0 mi SSE 10.4 mph - N/A   Scattered Clouds
7:03 PM 75.2 °F - 71.6 °F 89% 30.05 in 10.0 mi SSE 8.1 mph - N/A   Mostly Cloudy
7:08 PM 75.2 °F - 71.6 °F 89% 30.04 in 10.0 mi SSE 10.4 mph - N/A   Mostly Cloudy
7:13 PM 75.2 °F - 71.6 °F 89% 30.04 in 10.0 mi SSE 9.2 mph - N/A   Mostly Cloudy
7:28 PM 75.2 °F - 71.6 °F 89% 30.05 in 10.0 mi SSE 5.8 mph - N/A   Mostly Cloudy
7:33 PM 75.2 °F - 71.6 °F 89% 30.05 in 10.0 mi SSE 8.1 mph - N/A   Mostly Cloudy
7:38 PM 75.2 °F - 71.6 °F 89% 30.04 in 10.0 mi SSE 8.1 mph - N/A   Mostly Cloudy
7:48 PM 75.2 °F - 71.6 °F 89% 30.04 in 10.0 mi SSE 8.1 mph - N/A   Scattered Clouds
7:58 PM 75.2 °F - 71.6 °F 89% 30.05 in 10.0 mi SSE 6.9 mph - N/A   Mostly Cloudy
8:18 PM 75.2 °F - 71.6 °F 89% 30.04 in 10.0 mi SSE 9.2 mph - N/A   Mostly Cloudy
8:28 PM 75.2 °F - 71.6 °F 89% 30.04 in 10.0 mi South 9.2 mph - N/A   Mostly Cloudy
8:33 PM 75.2 °F - 71.6 °F 89% 30.05 in 10.0 mi SSE 6.9 mph - N/A   Mostly Cloudy
8:58 PM 74.5 °F - 72.3 °F 93% 30.07 in 10.0 mi South 10.4 mph - N/A   Overcast
9:58 PM 74.5 °F - 72.3 °F 93% 30.08 in 10.0 mi South 8.1 mph - N/A   Overcast
10:58 PM 74.3 °F - 72.5 °F 94% 30.08 in 10.0 mi South 5.8 mph - N/A   Mostly Cloudy
11:03 PM 75.2 °F - 73.4 °F 94% 30.07 in 10.0 mi SSE 6.9 mph - N/A   Scattered Clouds
11:08 PM 73.4 °F - 71.6 °F 94% 30.07 in 10.0 mi SSE 5.8 mph - N/A   Mostly Cloudy
11:18 PM 73.4 °F - 71.6 °F 94% 30.07 in 10.0 mi SSE 5.8 mph - N/A   Scattered Clouds
11:58 PM 74.1 °F - 72.3 °F 94% 30.07 in 10.0 mi SSE 6.9 mph - N/A   Clear